Gaylord, MI

11:37 AM EST on January 19, 2017 (GMT -0500)
Otsego County

Weather History for KGLR - January, 2014

Change the Weather History Date:

Thursday, January 16, 2014

  Actual Average Record
Temperature  
Mean Temperature 18 °F -  
Max Temperature 21 °F 24 °F 49 °F (1973)
Min Temperature 15 °F 7 °F -16 °F (1983)
Degree Days  
Heating Degree Days 47    
Moisture  
Dew Point 14 °F    
Average Humidity 86    
Maximum Humidity 92    
Minimum Humidity 77    
Precipitation  
Precipitation 0.01 in - - ()
Sea Level Pressure  
Sea Level Pressure 29.56 in    
Wind  
Wind Speed 14 mph (South)    
Max Wind Speed 20 mph    
Max Gust Speed 26 mph    
Visibility 3 miles    
Events Fog , Snow    
Averages and records for this station are not official NWS values.
T = Trace of Precipitation, MM = Missing Value Source: NWS Daily Summary

Daily Weather History Graph

Daily Weather History Graph

Search for Another Location

Airport or City:

Trip Planner

Search our weather history database for the weather conditions in past years. The results will help you decide how hot, cold, wet, or windy it might be!

Date:

Astronomy

Jan. 16, 2014 Rise Set
Actual Time 8:12 AM EST 5:24 PM EST
Civil Twilight 7:40 AM EST 5:57 PM EST
Nautical Twilight 7:03 AM EST 6:33 PM EST
Astronomical Twilight 6:28 AM EST 7:08 PM EST
Moon 6:20 PM EST (1/16) 8:02 AM EST (1/16)
Length of Visible Light 10h 17m
Length of Day
9h 11m
Full, 100% of the Moon is Illuminated
Jan 16
Full
Jan 24
Last Quarter
Jan 30
New
Feb 6
First Quarter
Feb 14
Full

Hourly Weather History & Observations

Time (EST) Temp. Windchill Dew Point Humidity Pressure Visibility Wind Dir Wind Speed Gust Speed Precip Events Conditions
12:53 AM 16.0 °F 0.6 °F 10.0 °F 77% 29.76 in 9.0 mi SSW 16.1 mph 26.5 mph N/A   Overcast
1:53 AM 16.0 °F 2.3 °F 10.9 °F 81% 29.75 in 3.0 mi SSW 12.7 mph - 0.00 in Snow Light Snow
2:26 AM 16.0 °F 2.3 °F 12.0 °F 84% 29.67 in 2.5 mi SSW 12.7 mph - 0.00 in Snow Light Snow
2:49 AM 15.8 °F 1.4 °F 12.2 °F 86% 29.64 in 4.0 mi South 13.8 mph - 0.00 in Snow Light Snow
2:53 AM 16.0 °F 2.3 °F 12.0 °F 84% 29.72 in 5.0 mi South 12.7 mph - 0.00 in Snow Light Snow
3:53 AM 17.1 °F 2.5 °F 12.0 °F 81% 29.68 in 9.0 mi South 15.0 mph - 0.00 in   Overcast
4:40 AM 17.1 °F 1.5 °F 12.9 °F 84% 29.58 in 5.0 mi South 17.3 mph 24.2 mph 0.00 in Snow Light Snow
4:53 AM 17.1 °F 3.0 °F 12.9 °F 84% 29.65 in 4.0 mi South 13.8 mph - 0.00 in Snow Light Snow
5:25 AM 16.0 °F 0.6 °F 12.9 °F 88% 29.56 in 2.5 mi South 16.1 mph 24.2 mph 0.00 in Snow Light Snow
5:37 AM 16.0 °F -0.4 °F 12.9 °F 88% 29.55 in 1.8 mi South 18.4 mph 24.2 mph 0.00 in Snow Light Snow
5:46 AM 16.0 °F -0.9 °F 12.0 °F 84% 29.55 in 2.5 mi South 19.6 mph 25.3 mph 0.00 in Snow Light Snow
5:53 AM 16.0 °F -0.4 °F 12.0 °F 84% 29.63 in 3.0 mi South 18.4 mph 25.3 mph 0.00 in Snow Light Snow
6:45 AM 16.0 °F 0.6 °F 12.0 °F 84% 29.54 in 2.0 mi South 16.1 mph 23.0 mph 0.00 in Snow Light Snow
6:53 AM 16.0 °F 0.1 °F 12.0 °F 84% 29.61 in 1.8 mi South 17.3 mph 24.2 mph 0.00 in Snow Light Snow
6:57 AM 16.0 °F 1.1 °F 12.0 °F 84% 29.54 in 2.0 mi South 15.0 mph - 0.00 in Snow Light Snow
7:21 AM 16.0 °F 1.1 °F 10.9 °F 81% 29.53 in 4.0 mi South 15.0 mph - 0.00 in Snow Light Snow
7:45 AM 15.1 °F -0.1 °F 10.9 °F 84% 29.53 in 5.0 mi South 15.0 mph 23.0 mph 0.00 in   Overcast
7:53 AM 15.1 °F -1.6 °F 10.9 °F 84% 29.60 in 6.0 mi South 18.4 mph 24.2 mph 0.00 in   Overcast
8:46 AM 15.1 °F -0.6 °F 10.9 °F 84% 29.53 in 5.0 mi South 16.1 mph 24.2 mph 0.00 in Snow Light Snow
8:53 AM 16.0 °F 0.1 °F 10.9 °F 81% 29.61 in 2.0 mi South 17.3 mph - 0.00 in Snow Light Snow
9:01 AM 16.0 °F 1.7 °F 10.9 °F 81% 29.53 in 1.2 mi South 13.8 mph - 0.00 in Snow Light Snow
9:53 AM 16.0 °F 0.1 °F 10.9 °F 81% 29.62 in 1.8 mi South 17.3 mph - 0.00 in Snow Light Snow
10:53 AM 17.1 °F 2.0 °F 12.0 °F 81% 29.61 in 1.5 mi South 16.1 mph - 0.00 in Snow Light Snow
11:14 AM 17.1 °F 3.6 °F 12.9 °F 84% 29.53 in 2.0 mi South 12.7 mph 21.9 mph 0.00 in   Overcast
11:25 AM 17.1 °F 3.0 °F 12.9 °F 84% 29.53 in 1.5 mi South 13.8 mph - 0.00 in Snow Light Snow
11:53 AM 18.0 °F 4.8 °F 12.9 °F 81% 29.59 in 1.8 mi South 12.7 mph 23.0 mph 0.00 in Snow Light Snow
12:01 PM 18.0 °F 3.6 °F 12.9 °F 81% 29.52 in 2.0 mi South 15.0 mph - 0.00 in Snow Light Snow
12:29 PM 18.0 °F 4.2 °F 12.9 °F 81% 29.51 in 4.0 mi South 13.8 mph - 0.00 in   Haze
12:53 PM 19.0 °F 5.0 °F 12.9 °F 77% 29.57 in 6.0 mi South 15.0 mph - 0.00 in   Haze
1:13 PM 19.0 °F 6.1 °F 14.0 °F 81% 29.50 in 6.0 mi South 12.7 mph - N/A   Haze
1:53 PM 19.0 °F 4.0 °F 15.1 °F 85% 29.56 in 7.0 mi South 17.3 mph - N/A   Overcast
2:53 PM 19.9 °F 5.2 °F 16.0 °F 85% 29.55 in 4.0 mi South 17.3 mph - 0.00 in Snow Light Snow
3:02 PM 19.9 °F 6.7 °F 16.0 °F 85% 29.48 in 1.8 mi South 13.8 mph 21.9 mph 0.00 in Snow Light Snow
3:23 PM 19.9 °F 7.9 °F 16.0 °F 85% 29.49 in 0.5 mi SSE 11.5 mph - 0.00 in Fog , Snow Snow
3:42 PM 19.0 °F 6.8 °F 16.0 °F 88% 29.49 in 0.8 mi SSE 11.5 mph - 0.00 in Snow Light Snow
3:53 PM 19.9 °F 9.3 °F 16.0 °F 85% 29.56 in 0.8 mi SSE 9.2 mph - 0.00 in Snow Light Snow
4:01 PM 19.9 °F 9.3 °F 16.0 °F 85% 29.49 in 0.8 mi SSE 9.2 mph - 0.00 in Snow Light Snow
4:11 PM 19.9 °F 7.9 °F 16.0 °F 85% 29.49 in 1.0 mi SSE 11.5 mph - 0.00 in Snow Light Snow
4:42 PM 19.9 °F 7.3 °F 17.1 °F 89% 29.50 in 2.0 mi SSE 12.7 mph - 0.00 in Snow Light Snow
4:53 PM 19.9 °F 7.3 °F 16.0 °F 85% 29.57 in 2.5 mi SSE 12.7 mph - 0.00 in Snow Light Snow
5:13 PM 19.9 °F 6.7 °F 16.0 °F 85% 29.50 in 4.0 mi SSE 13.8 mph - 0.00 in Snow Light Snow
5:23 PM 19.9 °F 7.3 °F 16.0 °F 85% 29.50 in 2.5 mi South 12.7 mph - 0.00 in Snow Light Snow
5:32 PM 19.9 °F 8.6 °F 17.1 °F 89% 29.50 in 5.0 mi SSE 10.4 mph - 0.00 in Snow Light Snow
5:53 PM 19.9 °F 7.9 °F 17.1 °F 89% 29.57 in 9.0 mi SSE 11.5 mph - 0.00 in   Overcast
6:12 PM 19.9 °F 7.9 °F 17.1 °F 89% 29.51 in 8.0 mi SSE 11.5 mph - N/A   Overcast
6:53 PM 19.9 °F 8.6 °F 18.0 °F 92% 29.58 in 7.0 mi SSE 10.4 mph - N/A   Overcast
7:45 PM 19.9 °F 10.1 °F 18.0 °F 92% 29.52 in 2.5 mi SSE 8.1 mph - 0.00 in Snow Light Snow
7:53 PM 19.9 °F 9.3 °F 18.0 °F 92% 29.59 in 2.5 mi SSE 9.2 mph - 0.00 in Snow Light Snow
8:04 PM 19.9 °F 9.3 °F 18.0 °F 92% 29.52 in 3.0 mi SSE 9.2 mph - 0.00 in Snow Light Snow
8:06 PM 19.9 °F 9.3 °F 18.0 °F 92% 29.52 in 2.5 mi SSE 9.2 mph - 0.00 in Snow Light Snow
8:14 PM 19.9 °F 9.3 °F 18.0 °F 92% 29.52 in 1.8 mi SSE 9.2 mph - 0.00 in Snow Light Snow
8:53 PM 19.9 °F 10.1 °F 18.0 °F 92% 29.60 in 1.5 mi SE 8.1 mph - 0.00 in Snow Light Snow
9:53 PM 19.9 °F 12.1 °F 18.0 °F 92% 29.60 in 1.2 mi SE 5.8 mph - 0.01 in Snow Light Snow
10:42 PM 21.0 °F 13.4 °F 18.0 °F 88% 29.53 in 2.0 mi SE 5.8 mph - 0.00 in Snow Light Snow
10:53 PM 21.0 °F 13.4 °F 18.0 °F 88% 29.60 in 2.0 mi SSE 5.8 mph - 0.00 in Snow Light Snow
11:20 PM 21.0 °F 12.4 °F 18.0 °F 88% 29.53 in 4.0 mi SE 6.9 mph - 0.00 in Snow Light Snow
11:34 PM 21.0 °F 12.4 °F 19.0 °F 92% 29.53 in 2.5 mi SSE 6.9 mph - 0.00 in Snow Light Snow
11:53 PM 19.9 °F 12.1 °F 18.0 °F 92% 29.59 in 4.0 mi SSE 5.8 mph - 0.00 in Snow Light Snow